Orbital Elements at Epoch 2459200.5 (2020-Dec-17.0) TDB
Reference: JPL 11 (heliocentric ecliptic J2000)
Element | Value | Uncertainty (1-sigma) | Units |
e | .006625259285188881 | 7.7788e-08 | |
a | 5.126434497473022 | 1.3529e-07 | au |
q | 5.092470539718727 | 4.237e-07 | au |
i | 9.812378432479452 | 7.1004e-06 | deg |
node | 149.5600846513927 | 4.4954e-05 | deg |
peri | 244.722761537558 | 0.00070213 | deg |
M | 208.3967370128985 | 0.00070776 | deg |
tp | 2460985.867372454587 (2025-Nov-06.36737245) | 0.0083635 | TDB |
period | 4239.567417083465 11.61 | 0.00016783 4.595e-07 | d yr |
n | .08491432369948149 | 3.3615e-09 | deg/d |
Q | 5.160398455227319 | 1.3619e-07 | au |
|
| | Orbit Determination Parameters
Additional Information
|